Regional Weather Roundup
Issued by NWS

Home | Current Version | Previous Version | Graphics & Text | Print | Product List | Glossary On
Versions: 1 2 3 4 5 6 7 8 9 10 11 12 13 14 15 16 17 18 19 20 21 22 23 24 25 26 27 28 29 30 31 32 33 34 35 36 37 38 39 40 41 42 43 44 45 46 47 48 49 50
000
ASUS43 KLOT 241303
RWRIL

ILLINOIS REGIONAL WEATHER ROUNDUP
NATIONAL WEATHER SERVICE CHICAGO/ROMEOVILLE IL
700 AM CST FRI FEB 24 2017

NOTE: "FAIR" INDICATES FEW OR NO CLOUDS BELOW 12,000 FEET WITH NO
SIGNIFICANT WEATHER AND/OR OBSTRUCTIONS TO VISIBILITY.

* THESE STATIONS ARE NOT UNDER NWS QUALITY CONTROL. THEY ALSO MAY NOT
  REPORT WEATHER SUCH AS PRECIPITATION OR FOG.

ILZ001-002-007-009-015-016-024-241400-
NORTHWEST ILLINOIS

CITY           SKY/WX    TMP DP  RH WIND       PRES   REMARKS
MOLINE         CLOUDY    42  38  85 NE10      29.43F FOG
STERLING*      CLOUDY    39  37  92 NE13      29.45F WCI  31
$$

ILZ003-004-008-010-011-017-018-241400-
NORTH CENTRAL ILLINOIS

CITY           SKY/WX    TMP DP  RH WIND       PRES   REMARKS
ROCKFORD       DRIZZLE   38  35  89 NE14G22   29.50F WCI  30
FREEPORT*      CLOUDY    35  34  96 NE12      29.50F WCI  27
ROCHELLE*      CLOUDY    37  37  97 NE16      29.47S WCI  28
DE KALB*       CLOUDY    38  38  97 NE13      29.47R WCI  30
PERU*          CLOUDY    42  41  97 NE12      29.44S FOG
$$

ILZ005-006-012>014-019>023-241400-
NORTHEAST ILLINOIS

CITY           SKY/WX    TMP DP  RH WIND       PRES   REMARKS
CHICAGO-OHARE  CLOUDY    40  38  93 N12       29.47F
CHICAGO-MIDWAY CLOUDY    41  39  93 NW10G21   29.49R FOG
AURORA         CLOUDY    41  39  93 NE15      29.46F
LANSING*       CLOUDY    46  46 100 S6        29.43F
JOLIET*        CLOUDY    46  45  99 N6        29.46R FOG
WAUKEGAN       CLOUDY    36  35  96 NE22G31   29.46F WCI  25
DUPAGE AIRPORT CLOUDY    39  37  92 NE10      29.46F WCI  32
KANKAKEE*      MOCLDY    58  55  92 S18G24    29.45R
WHEELING       CLOUDY    38  36  92 N13G22    29.48F WCI  30
MORRIS*        CLOUDY    44  43  96 N8        29.43F FOG
ROMEOVILLE*    CLOUDY    42  42 100 NE12      29.46R FOG
NORTHERLY ISL    N/A     42  40  92 N6          N/A
$$

LMZ740>746-241400-
SOUTHERN LAKE MICHIGAN

STATION/POSITION SKY/WX   TEMP    WIND        PRES    VSBY  WAVE
                          AIR SEA DIR/SP/G                  HT/PER
                          (F)     (DEG/KT/KT) (MB)    (MI)  (FT/S)
HARRISON CRIB              38     330/ 23/ 26   N/A
BURNHAM HARBOR             42     320/  5/ 11   N/A
CALUMET HARBOR             38     340/ 12/ 14  995.9F
BURNS HARBOR               58     190/  5/ 21  996.6F
MICHIGAN CITY              58     170/ 16/ 20   N/A
$$

ILZ025>027-034>036-040-047-049-050-058-095>099-241400-
WEST-CENTRAL ILLINOIS

CITY           SKY/WX    TMP DP  RH WIND       PRES   REMARKS
QUINCY         FOG       47  47 100 NW12      29.41R VSB 1/4
GALESBURG*     CLOUDY    42  42 100 NE8       29.41S FOG
MACOMB*        CLOUDY    46  46  98 N3        29.42S FOG
JACKSONVILLE*  CLEAR     57  53  85 S13G20    29.40F
PITTSFIELD*    CLEAR     60  55  82 S9        29.41S
$$

ILZ028>032-037-038-041>044-048-051>054-059>061-241400-
CENTRAL ILLINOIS

CITY           SKY/WX    TMP DP  RH WIND       PRES   REMARKS
PONTIAC        PTCLDY    59  58  95 S21G26    29.42S
BLOOMINGTON    CLOUDY    58  55  90 S22       29.43F
DECATUR        CLEAR     59  54  83 S16       29.46S
PEORIA         PTCLDY    57  54  89 SW8       29.41R
LACON*         MOCLDY    44  44 100 N6        29.41S FOG
LINCOLN*       PTCLDY    59  57  93 S16G23    29.43R
SPRINGFIELD    CLEAR     61  55  81 S18G29    29.43S
TAYLORVILLE    CLEAR     59  55  88 S15       29.46S
$$

ILZ033-039-045-046-055>057-062-063-241400-
EAST-CENTRAL ILLINOIS

CITY           SKY/WX    TMP DP  RH WIND       PRES   REMARKS
CHAMPAIGN      CLEAR     59  55  87 S23G31    29.47F
RANTOUL*       CLEAR     61  57  88 S21G28    29.47R
MATTOON        CLEAR     59  56  89 S14G22    29.49F
PARIS*         PTCLDY    59  56  89 S20       29.52F
$$

ILZ079-100>102-241400-
SOUTHWEST ILLINOIS

CITY           SKY/WX    TMP DP  RH WIND       PRES   REMARKS
BELLEVILLE     PTCLDY    61  59  92 SE8       29.47S
CAHOKIA*       PTCLDY    63  53  70 S12       29.46S
SPARTA*        PTCLDY    60  55  85 S16G25    29.52R
$$

ILZ064>066-069>071-074>076-080>082-084>086-088>090-092>094-241400-
SOUTH-CENTRAL ILLINOIS

CITY           SKY/WX    TMP DP  RH WIND       PRES   REMARKS
CARBONDALE     CLOUDY    63  56  78 S26G36    29.54S
CAIRO*         CLEAR     60  56  88 S9        29.60S
EFFINGHAM*     CLEAR     60  57  91 SE7       29.53S
MARION         PTCLDY    63  59  88 S14       29.58R
MT. VERNON     PTCLDY    62  56  80 S21       29.54R
CENTRALIA*     PTCLDY    64  56  78 S24       29.51R
SALEM*         PTCLDY    64  55  74 S17G23    29.52R
METROPOLIS*    CLEAR     63  56  79 S14G22    29.62S
$$

ILZ067-068-072-073-078-083-087-091-241400-
SOUTHEAST ILLINOIS

CITY           SKY/WX    TMP DP  RH WIND       PRES   REMARKS
LAWRENCEVILLE  CLEAR     60  56  86 S17       29.57F
FLORA*         CLEAR     62  57  84 S13       29.54S
FAIRFIELD*     CLEAR     61  57  86 S9        29.54S
HARRISBURG*    CLEAR     64  56  78 S17       29.58R
ROBINSON*      CLEAR     58  55  88 S12       29.56F
CARMI*         CLEAR     60  56  87 S16       29.57F
$$

ABBREVIATIONS USED IN REMARKS
   TC - TEMPERATURE IN CELSIUS
  WCI - WIND CHILL INDEX
   HX - HEAT INDEX
  VSB - VISIBILITY
$$





USA.gov is the U.S. government's official web portal to all federal, state and local government web resources and services.